CW0315 Weather Reports


time (UTC)temp
C
wind
direction
speed
KPH
gust
KPH
rain 1hr
cm
rain 24hr
cm
rain mn
cm
humidity
%
barometer
mb
20260904145309 25 180 3.2 17.7 0.00 0.08 0.00 48 1015.3
20260904143309 25 180 6.4 14.5 0.00 0.08 0.00 45 1015.8
20260904141309 25 270 4.8 24.1 0.00 0.08 0.00 44 1016.0
20260904140314 25 247 4.8 17.7 0.00 0.08 0.00 45 1015.9
20260904135314 25 180 11.3 24.1 0.00 0.08 0.00 45 1015.9
20260904134313 25 202 11.3 32.2 0.00 0.08 0.00 47 1016.1
20260904133313 25 180 1.6 9.7 0.00 0.08 0.00 50 1016.7
20260904132313 25 180 4.8 24.1 0.00 0.08 0.00 46 1016.6
20260904131313 25 292 11.3 27.4 0.00 0.08 0.00 48 1016.6
20260904130313 25 202 8.0 20.9 0.00 0.08 0.00 49 1017.0
20260904124313 24 202 6.4 24.1 0.00 0.08 0.00 50 1017.0
20260904123313 24 180 9.7 16.1 0.00 0.08 0.00 52 1017.3
20260904122313 23 180 8.0 24.1 0.00 0.08 0.00 58 1017.2
20260904120312 22 157 6.4 17.7 0.00 0.08 0.00 58 1017.6
20260904115312 22 202 8.0 30.6 0.00 0.08 0.00 59 1017.6
20260904114312 22 202 4.8 12.9 0.00 0.08 0.00 62 1017.8
20260904112312 21 270 1.6 11.3 0.00 0.08 0.00 65 1018.0
20260904111312 21 270 8.0 16.1 0.00 0.08 0.00 62 1018.0
20260904110311 21 225 3.2 14.5 0.00 0.08 0.00 62 1018.3
20260904105311 21 292 6.4 19.3 0.00 0.08 0.00 62 1018.3
20260904104311 21 292 4.8 12.9 0.00 0.08 0.00 65 1018.4
20260904103311 21 202 11.3 17.7 0.00 0.08 0.00 65 1018.9
20260904102311 21 180 3.2 12.9 0.00 0.08 0.00 65 1018.9
20260904101311 22 135 1.6 25.7 0.00 0.08 0.00 65 1019.3
20260904100311 21 292 3.2 19.3 0.00 0.08 0.00 65 1019.1
20260904095310 21 247 1.6 16.1 0.00 0.08 0.00 67 1019.1
20260904094310 21 202 3.2 14.5 0.00 0.08 0.00 68 1019.4
20260904093310 20 180 3.2 11.3 0.00 0.08 0.00 70 1019.3
20260904092310 20 180 4.8 12.9 0.00 0.08 0.00 70 1019.3
20260904091310 20 180 6.4 14.5 0.00 0.08 0.00 70 1019.4
20260904090310 20 202 3.2 11.3 0.00 0.08 0.00 71 1019.4
20260904085310 20 180 3.2 16.1 0.00 0.08 0.00 69 1019.4
20260904084310 20 202 3.2 17.7 0.00 0.08 0.00 67 1019.5
20260904083309 20 180 4.8 12.9 0.00 0.08 0.00 69 1019.6
20260904082309 19 180 1.6 8.0 0.00 0.08 0.00 72 1019.4
20260904080309 17 0 0.0 4.8 0.00 0.08 0.00 74 1019.1
20260904075314 17 0 0.0 4.8 0.00 0.08 0.00 73 1019.1
20260904074314 17 0 0.0 0.0 0.00 0.08 0.00 75 1019.2
20260904073315 17 0 0.0 6.4 0.00 0.08 0.00 74 1018.9
20260904072314 17 202 3.2 6.4 0.00 0.08 0.00 73 1019.1
20260904071313 17 0 0.0 0.0 0.00 0.08 0.00 70 1019.1
20260904070313 17 270 1.6 11.3 0.00 0.08 0.00 72 1019.1
20260904065313 17 0 0.0 6.4 0.00 0.08 0.00 73 1018.9
20260904064313 16 0 0.0 0.0 0.00 0.08 0.00 77 1018.9
20260904063313 16 0 0.0 0.0 0.00 0.08 0.00 78 1019.0
20260904062313 16 0 0.0 0.0 0.00 0.08 0.00 79 1018.8
20260904060312 15 0 0.0 0.0 0.00 0.08 0.00 84 1018.8
20260904055312 15 0 0.0 0.0 0.00 0.08 0.00 86 1018.8
20260904054312 14 0 0.0 0.0 0.00 0.08 0.00 87 1018.7
20260904052312 13 0 0.0 0.0 0.00 0.08 0.00 90 1018.7
20260904051312 13 0 0.0 0.0 0.00 0.08 0.00 91 1018.7
20260904050312 13 0 0.0 0.0 0.00 0.08 0.00 91 1018.9
20260904044311 13 0 0.0 0.0 0.00 0.08 0.00 91 1018.8
20260904043311 13 0 0.0 0.0 0.00 0.08 0.00 91 1019.0
20260904042311 13 0 0.0 0.0 0.00 0.08 0.00 90 1019.0
20260904041311 12 0 0.0 0.0 0.00 0.08 0.00 90 1019.1
20260904040311 12 0 0.0 0.0 0.00 0.08 0.00 90 1019.4
20260904034310 12 0 0.0 0.0 0.00 0.08 0.00 88 1019.5
20260904033310 12 0 0.0 0.0 0.00 0.08 0.00 88 1019.3
20260904032310 12 0 0.0 0.0 0.00 0.08 0.00 87 1019.3
20260904030310 13 45 4.8 9.7 0.00 0.08 0.00 86 1019.4
20260904025310 13 360 1.6 6.4 0.00 0.08 0.00 85 1019.4
20260904024310 13 0 0.0 4.8 0.00 0.08 0.00 84 1019.3
20260904023310 13 0 0.0 0.0 0.00 0.08 0.00 82 1019.7
20260904022309 14 0 0.0 0.0 0.00 0.08 0.00 82 1019.7
20260904021309 14 0 0.0 1.6 0.00 0.08 0.00 81 1019.8
20260904015309 15 0 0.0 0.0 0.00 0.08 0.00 80 1019.8
20260904014309 15 0 0.0 0.0 0.00 0.08 0.00 80 1019.7
20260904013314 15 337 0.0 9.7 0.00 0.08 0.00 80 1019.9
20260904012314 15 22 3.2 8.0 0.00 0.08 0.00 81 1019.9
20260904011314 15 0 0.0 6.4 0.00 0.08 0.00 81 1020.1
20260904010313 15 0 0.0 0.0 0.00 0.08 0.00 82 1020.1
20260904005314 15 0 0.0 0.0 0.00 0.08 0.00 82 1020.1
20260904003313 15 0 0.0 0.0 0.00 0.08 0.00 83 1020.2
20260904002313 15 0 0.0 0.0 0.00 0.08 0.00 83 1020.2
20260904001313 15 0 0.0 0.0 0.00 0.08 0.00 82 1020.2
20260903235313 15 0 0.0 0.0 0.00 0.08 0.00 81 1020.4
20260903234312 15 0 0.0 9.7 0.00 0.08 0.00 82 1020.4
20260903232312 15 360 6.4 11.3 0.00 0.08 0.00 84 1020.3
20260903231312 14 0 0.0 8.0 0.00 0.08 0.00 86 1020.2
20260903230312 14 0 0.0 8.0 0.00 0.08 0.00 86 1020.2
20260903225312 14 0 0.0 0.0 0.00 0.08 0.00 87 1020.2
20260903223311 14 0 0.0 0.0 0.00 0.08 0.00 87 1020.6
20260903222311 14 0 0.0 0.0 0.00 0.08 0.00 88 1020.8
20260903221311 14 0 0.0 0.0 0.00 0.08 0.00 89 1020.7
20260903220311 14 0 0.0 0.0 0.00 0.08 0.08 89 1020.8
20260903215311 14 0 0.0 0.0 0.00 0.08 0.08 89 1020.8
20260903214311 14 0 0.0 0.0 0.00 0.08 0.08 89 1020.8
20260903213311 14 0 0.0 6.4 0.00 0.08 0.08 89 1020.9
20260903212310 14 0 0.0 0.0 0.00 0.08 0.08 89 1020.9
20260903210310 14 22 3.2 6.4 0.00 0.08 0.08 91 1020.9
20260903205310 14 0 0.0 8.0 0.00 0.08 0.08 91 1020.9
20260903204310 14 360 4.8 8.0 0.00 0.08 0.08 91 1020.6
20260903203310 14 22 4.8 9.7 0.00 0.08 0.08 91 1020.5
20260903202310 14 22 4.8 9.7 0.00 0.08 0.08 91 1020.3
20260903201310 14 22 6.4 9.7 0.00 0.08 0.08 91 1020.3
20260903200310 14 22 6.4 9.7 0.00 0.08 0.08 91 1020.3
20260903195309 14 22 8.0 11.3 0.00 0.08 0.08 91 1020.3
20260903194309 14 22 4.8 8.0 0.00 0.08 0.08 91 1020.3
20260903193309 14 360 4.8 8.0 0.00 0.08 0.08 90 1020.3
20260903191314 14 360 8.0 8.0 0.00 0.08 0.08 90 1020.2
20260903190314 14 360 4.8 8.0 0.00 0.08 0.08 89 1020.0
20260903184314 15 360 6.4 8.0 0.03 0.08 0.08 88 1020.0
20260903182313 14 22 4.8 12.9 0.03 0.08 0.08 86 1019.8
20260903181313 14 22 6.4 12.9 0.03 0.08 0.08 85 1019.5
20260903180313 15 22 8.0 11.3 0.03 0.08 0.08 84 1019.5
20260903175313 15 22 9.7 16.1 0.05 0.08 0.08 83 1019.5
20260903173313 15 22 9.7 12.9 0.05 0.05 0.05 81 1019.1
20260903171312 16 22 8.0 14.5 0.05 0.05 0.05 78 1019.7
20260903170312 17 360 4.8 8.0 0.05 0.05 0.05 77 1019.9
20260903165312 17 22 4.8 8.0 0.03 0.03 0.03 72 1019.9
20260903164312 18 337 6.4 11.3 0.03 0.03 0.03 68 1019.6
20260903162311 19 360 8.0 20.9 0.00 0.00 0.00 65 1019.7
20260903161311 19 360 4.8 6.4 0.00 0.00 0.00 66 1019.7
20260903160312 19 0 0.0 9.7 0.00 0.00 0.00 57 1019.6
20260903155312 19 247 4.8 16.1 0.00 0.00 0.00 55 1019.6
20260903153311 20 180 1.6 9.7 0.00 0.00 0.00 54 1019.5
20260903152311 20 270 8.0 17.7 0.00 0.00 0.00 53 1019.5
20260903151310 20 202 9.7 17.7 0.00 0.00 0.00 53 1019.3
20260903150311 20 292 6.4 16.1 0.00 0.00 0.00 53 1019.4